This is the latest recevied weather packets stored in our database for station/object NE8U. If no packets are shown the sender has not sent any weather packets the latest 1 day(s).
| Time | Temp. | Humidity | Pressure | Rain* | Wind** | Luminosity | Snow |
|---|---|---|---|---|---|---|---|
| 1778094964 | 23.89° C | 29% | 1017.1 hPa | 0 mm | - | 807 W/m² | - |
| 1778094054 | 25° C | 27% | 1017.1 hPa | 0 mm | - | 769 W/m² | - |
| 1778093448 | 24.44° C | 30% | 1017 hPa | 0 mm | - | 800 W/m² | - |
| 1778093145 | 24.44° C | 30% | 1017.2 hPa | 0 mm | - | 799 W/m² | - |
| 1778092235 | 23.89° C | 31% | 1017.3 hPa | 0 mm | - | 771 W/m² | - |
| 1778091024 | 22.78° C | 33% | 1017.7 hPa | 0 mm | - | 734 W/m² | - |
| 1778090114 | 22.78° C | 33% | 1017.9 hPa | 0 mm | - | 742 W/m² | - |
| 1778089810 | 22.78° C | 33% | 1018 hPa | 0 mm | - | 741 W/m² | - |
| 1778089509 | 23.33° C | 32% | 1017.9 hPa | 0 mm | - | 747 W/m² | - |
| 1778088599 | 21.67° C | 33% | 1017.9 hPa | 0 mm | - | 779 W/m² | - |
| 1778087690 | 21.67° C | 34% | 1017.8 hPa | 0 mm | - | 787 W/m² | - |
| 1778086777 | 21.67° C | 33% | 1017.8 hPa | 0 mm | - | 790 W/m² | - |
| 1778086170 | 21.67° C | 34% | 1017.9 hPa | 0 mm | - | 780 W/m² | - |
| 1778085560 | 21.67° C | 34% | 1017.8 hPa | 0 mm | - | 855 W/m² | - |
| 1778085254 | 21.67° C | 34% | 1017.7 hPa | 0 mm | - | 845 W/m² | - |
| 1778080195 | 19.44° C | 48% | 1017.6 hPa | 0 mm | - | 416 W/m² | - |
| 1778079891 | 18.89° C | 49% | 1017.6 hPa | 0 mm | - | 413 W/m² | - |
| 1778077772 | 17.22° C | 52% | 1017.4 hPa | 0 mm | - | 223 W/m² | - |
| 1778076865 | 16.67° C | 51% | 1017.6 hPa | 0 mm | - | 201 W/m² | - |
| 1778076260 | 15° C | 58% | 1017.8 hPa | 0 mm | - | 176 W/m² | - |
| 1778075957 | 15° C | 58% | 1017.4 hPa | 0 mm | - | 154 W/m² | - |
| 1778075350 | 15.56° C | 55% | 1017.3 hPa | 0 mm | - | 119 W/m² | - |
| 1778074440 | 14.44° C | 59% | 1017.2 hPa | 0 mm | - | 51 W/m² | - |
| 1778073532 | 12.78° C | 62% | 1017.2 hPa | 0 mm | - | 36 W/m² | - |
| 1778073228 | 12.78° C | 63% | 1017.2 hPa | 0 mm | - | 32 W/m² | - |
* Rain latest hour (hover to see other rain measurements)
** Current wind speed in m/s (hover to see current wind gust speed)